| time (UTC) | temp C | wind direction | speed KPH | gust KPH | rain 1hr cm | rain 24hr cm | rain mn cm | humidity % | barometer mb |
| 20260507030904 | 10 | 269 | 0.0 | 0.0 | 0.00 | 0.00 | 0.00 | 36 | 1017.4 |
| 20260507025904 | 10 | 269 | 0.0 | 0.0 | 0.00 | 0.00 | 0.00 | 36 | 1017.3 |
| 20260507025404 | 11 | 269 | 0.0 | 0.0 | 0.00 | 0.00 | 0.00 | 33 | 1017.3 |
| 20260507024904 | 11 | 269 | 0.0 | 0.0 | 0.00 | 0.00 | 0.00 | 32 | 1017.4 |
| 20260507024404 | 11 | 269 | 0.0 | 0.0 | 0.00 | 0.00 | 0.00 | 32 | 1017.3 |
| 20260507023904 | 11 | 269 | 0.0 | 0.0 | 0.00 | 0.00 | 0.00 | 32 | 1017.2 |
| 20260507022904 | 12 | 269 | 0.0 | 0.0 | 0.00 | 0.00 | 0.00 | 28 | 1017.2 |
| 20260507022404 | 12 | 269 | 0.0 | 0.0 | 0.00 | 0.00 | 0.00 | 28 | 1017.2 |
| 20260507021904 | 12 | 269 | 0.0 | 0.0 | 0.00 | 0.00 | 0.00 | 28 | 1017.2 |
| 20260507021404 | 12 | 269 | 0.0 | 0.0 | 0.00 | 0.00 | 0.00 | 28 | 1017.3 |
| 20260507020903 | 12 | 269 | 0.0 | 0.0 | 0.00 | 0.00 | 0.00 | 26 | 1017.3 |
| 20260507020404 | 12 | 269 | 0.0 | 0.0 | 0.00 | 0.00 | 0.00 | 26 | 1017.3 |
| 20260507015904 | 12 | 269 | 0.0 | 0.0 | 0.00 | 0.00 | 0.00 | 26 | 1017.4 |
| 20260507015404 | 12 | 269 | 0.0 | 0.0 | 0.00 | 0.00 | 0.00 | 25 | 1017.5 |
| 20260507014903 | 12 | 269 | 0.0 | 0.0 | 0.00 | 0.00 | 0.00 | 24 | 1017.4 |
| 20260507014404 | 13 | 269 | 0.0 | 0.0 | 0.00 | 0.00 | 0.00 | 24 | 1017.3 |
| 20260507013903 | 13 | 269 | 0.0 | 0.0 | 0.00 | 0.00 | 0.00 | 23 | 1017.2 |
| 20260507013405 | 13 | 269 | 0.0 | 1.6 | 0.00 | 0.00 | 0.00 | 22 | 1017.2 |
| 20260507012404 | 13 | 278 | 1.6 | 3.2 | 0.00 | 0.00 | 0.00 | 21 | 1017.1 |
| 20260507010903 | 13 | 251 | 1.6 | 8.0 | 0.00 | 0.00 | 0.00 | 21 | 1017.1 |
| 20260507010404 | 13 | 247 | 1.6 | 4.8 | 0.00 | 0.00 | 0.00 | 21 | 1017.0 |
| 20260507005904 | 13 | 241 | 3.2 | 19.3 | 0.00 | 0.00 | 0.00 | 21 | 1017.1 |
| 20260507004904 | 13 | 236 | 1.6 | 20.9 | 0.00 | 0.00 | 0.00 | 20 | 1017.0 |
| 20260507004404 | 13 | 239 | 9.7 | 22.5 | 0.00 | 0.00 | 0.00 | 21 | 1017.0 |
| 20260507003904 | 13 | 225 | 1.6 | 19.3 | 0.00 | 0.00 | 0.00 | 21 | 1016.9 |
| 20260507002904 | 14 | 231 | 0.0 | 12.9 | 0.00 | 0.00 | 0.00 | 20 | 1016.9 |
| 20260507002404 | 14 | 230 | 8.0 | 20.9 | 0.00 | 0.00 | 0.00 | 18 | 1016.9 |
| 20260507001904 | 15 | 231 | 0.0 | 1.6 | 0.00 | 0.00 | 0.00 | 20 | 1016.8 |
| 20260507001404 | 15 | 228 | 0.0 | 9.7 | 0.00 | 0.00 | 0.00 | 19 | 1016.8 |
| 20260507000405 | 15 | 342 | 1.6 | 9.7 | 0.00 | 0.00 | 0.00 | 17 | 1016.7 |
| 20260506235904 | 15 | 355 | 0.0 | 12.9 | 0.00 | 0.00 | 0.00 | 16 | 1016.9 |
| 20260506235404 | 15 | 304 | 1.6 | 24.1 | 0.00 | 0.00 | 0.00 | 17 | 1016.7 |
| 20260506234904 | 14 | 224 | 8.0 | 25.7 | 0.00 | 0.00 | 0.00 | 19 | 1016.7 |
| 20260506233903 | 13 | 229 | 0.0 | 3.2 | 0.00 | 0.00 | 0.00 | 17 | 1016.8 |
| 20260506233404 | 13 | 233 | 0.0 | 4.8 | 0.00 | 0.00 | 0.00 | 16 | 1016.7 |
| 20260506232904 | 14 | 0 | 1.6 | 14.5 | 0.00 | 0.00 | 0.00 | 15 | 1016.7 |
| 20260506232404 | 14 | 41 | 1.6 | 14.5 | 0.00 | 0.00 | 0.00 | 15 | 1016.7 |
| 20260506231905 | 15 | 301 | 0.0 | 0.0 | 0.00 | 0.00 | 0.00 | 15 | 1016.6 |
| 20260506230904 | 15 | 264 | 1.6 | 4.8 | 0.00 | 0.00 | 0.00 | 13 | 1016.7 |
| 20260506230404 | 15 | 24 | 1.6 | 11.3 | 0.00 | 0.00 | 0.00 | 14 | 1016.8 |
| 20260506225904 | 15 | 15 | 8.0 | 25.7 | 0.00 | 0.00 | 0.00 | 13 | 1016.8 |
| 20260506225404 | 16 | 5 | 1.6 | 19.3 | 0.00 | 0.00 | 0.00 | 13 | 1016.9 |
| 20260506224904 | 16 | 88 | 0.0 | 3.2 | 0.00 | 0.00 | 0.00 | 13 | 1016.9 |
| 20260506224403 | 16 | 125 | 0.0 | 4.8 | 0.00 | 0.00 | 0.00 | 12 | 1017.0 |
| 20260506223904 | 16 | 229 | 4.8 | 14.5 | 0.00 | 0.00 | 0.00 | 11 | 1017.0 |
| 20260506223404 | 16 | 234 | 1.6 | 12.9 | 0.00 | 0.00 | 0.00 | 12 | 1017.0 |
| 20260506222904 | 16 | 212 | 3.2 | 12.9 | 0.00 | 0.00 | 0.00 | 11 | 1017.0 |
| 20260506222404 | 16 | 230 | 4.8 | 12.9 | 0.00 | 0.00 | 0.00 | 11 | 1017.1 |
| 20260506221903 | 16 | 281 | 0.0 | 4.8 | 0.00 | 0.00 | 0.00 | 11 | 1017.0 |
| 20260506221403 | 16 | 222 | 3.2 | 14.5 | 0.00 | 0.00 | 0.00 | 12 | 1017.2 |
| 20260506220404 | 15 | 259 | 1.6 | 11.3 | 0.00 | 0.00 | 0.00 | 10 | 1017.5 |
| 20260506215905 | 15 | 312 | 6.4 | 22.5 | 0.00 | 0.00 | 0.00 | 10 | 1017.2 |
| 20260506215404 | 15 | 44 | 1.6 | 9.7 | 0.00 | 0.00 | 0.00 | 9 | 1017.1 |
| 20260506214904 | 15 | 249 | 0.0 | 19.3 | 0.00 | 0.00 | 0.00 | 12 | 1017.1 |
| 20260506214404 | 15 | 17 | 0.0 | 14.5 | 0.00 | 0.00 | 0.00 | 10 | 1017.1 |
| 20260506213404 | 15 | 37 | 6.4 | 19.3 | 0.00 | 0.00 | 0.00 | 10 | 1017.1 |
| 20260506212904 | 15 | 251 | 3.2 | 14.5 | 0.00 | 0.00 | 0.00 | 11 | 1017.2 |
| 20260506212404 | 14 | 359 | 1.6 | 16.1 | 0.00 | 0.00 | 0.00 | 11 | 1017.3 |
| 20260506211905 | 15 | 36 | 1.6 | 16.1 | 0.00 | 0.00 | 0.00 | 10 | 1017.3 |
| 20260506211405 | 15 | 323 | 3.2 | 9.7 | 0.00 | 0.00 | 0.00 | 9 | 1017.4 |
| 20260506210904 | 15 | 9 | 1.6 | 3.2 | 0.00 | 0.00 | 0.00 | 11 | 1017.5 |
| 20260506210408 | 15 | 252 | 0.0 | 8.0 | 0.00 | 0.00 | 0.00 | 11 | 1017.5 |
| 20260506205904 | 14 | 25 | 0.0 | 12.9 | 0.00 | 0.00 | 0.00 | 11 | 1017.4 |
| 20260506205404 | 15 | 276 | 1.6 | 19.3 | 0.00 | 0.00 | 0.00 | 11 | 1017.4 |
| 20260506204904 | 14 | 273 | 1.6 | 14.5 | 0.00 | 0.00 | 0.00 | 13 | 1017.4 |
| 20260506204404 | 14 | 249 | 8.0 | 20.9 | 0.00 | 0.00 | 0.00 | 12 | 1017.4 |
| 20260506203904 | 14 | 225 | 4.8 | 19.3 | 0.00 | 0.00 | 0.00 | 13 | 1017.4 |
| 20260506203404 | 13 | 266 | 3.2 | 19.3 | 0.00 | 0.00 | 0.00 | 12 | 1017.4 |
| 20260506202904 | 13 | 224 | 9.7 | 20.9 | 0.00 | 0.00 | 0.00 | 12 | 1017.5 |
| 20260506202404 | 13 | 229 | 0.0 | 19.3 | 0.00 | 0.00 | 0.00 | 12 | 1017.5 |
| 20260506201904 | 13 | 241 | 1.6 | 8.0 | 0.00 | 0.00 | 0.00 | 13 | 1017.5 |
| 20260506201404 | 13 | 249 | 0.0 | 8.0 | 0.00 | 0.00 | 0.00 | 13 | 1017.4 |
| 20260506200904 | 13 | 231 | 0.0 | 4.8 | 0.00 | 0.00 | 0.00 | 12 | 1017.5 |
| 20260506200404 | 13 | 239 | 6.4 | 19.3 | 0.00 | 0.00 | 0.00 | 13 | 1017.6 |
| 20260506195904 | 13 | 207 | 9.7 | 32.2 | 0.00 | 0.00 | 0.00 | 15 | 1017.4 |
| 20260506195404 | 13 | 224 | 12.9 | 32.2 | 0.00 | 0.00 | 0.00 | 15 | 1017.3 |
| 20260506194404 | 13 | 241 | 11.3 | 22.5 | 0.00 | 0.00 | 0.00 | 13 | 1017.5 |
| 20260506193904 | 13 | 207 | 8.0 | 19.3 | 0.00 | 0.00 | 0.00 | 14 | 1017.7 |
| 20260506193404 | 13 | 273 | 3.2 | 19.3 | 0.00 | 0.00 | 0.00 | 13 | 1017.7 |
| 20260506192904 | 13 | 231 | 1.6 | 4.8 | 0.00 | 0.00 | 0.00 | 13 | 1017.7 |
| 20260506192404 | 12 | 221 | 1.6 | 8.0 | 0.00 | 0.00 | 0.00 | 14 | 1017.7 |
| 20260506191904 | 12 | 239 | 3.2 | 4.8 | 0.00 | 0.00 | 0.00 | 14 | 1017.7 |
| 20260506190904 | 12 | 244 | 3.2 | 12.9 | 0.00 | 0.00 | 0.00 | 12 | 1017.8 |
| 20260506190404 | 11 | 226 | 3.2 | 11.3 | 0.00 | 0.00 | 0.00 | 13 | 1017.8 |
| 20260506185904 | 11 | 355 | 0.0 | 4.8 | 0.00 | 0.00 | 0.00 | 10 | 1017.9 |
| 20260506185404 | 11 | 28 | 1.6 | 16.1 | 0.00 | 0.00 | 0.00 | 12 | 1017.8 |
| 20260506184904 | 11 | 37 | 4.8 | 14.5 | 0.00 | 0.00 | 0.00 | 11 | 1017.8 |
| 20260506184404 | 11 | 30 | 0.0 | 8.0 | 0.00 | 0.00 | 0.00 | 12 | 1017.7 |
| 20260506183904 | 11 | 7 | 6.4 | 14.5 | 0.00 | 0.00 | 0.00 | 10 | 1017.8 |
| 20260506183404 | 11 | 46 | 1.6 | 19.3 | 0.00 | 0.00 | 0.00 | 11 | 1017.9 |
| 20260506182904 | 11 | 61 | 3.2 | 9.7 | 0.00 | 0.00 | 0.00 | 10 | 1018.0 |
| 20260506182404 | 10 | 244 | 4.8 | 19.3 | 0.00 | 0.00 | 0.00 | 13 | 1018.0 |
| 20260506181904 | 10 | 38 | 8.0 | 25.7 | 0.00 | 0.00 | 0.00 | 10 | 1018.1 |
| 20260506181404 | 10 | 22 | 1.6 | 9.7 | 0.00 | 0.00 | 0.00 | 8 | 1018.2 |
| 20260506180904 | 10 | 42 | 4.8 | 12.9 | 0.00 | 0.00 | 0.00 | 8 | 1018.2 |
| 20260506175904 | 11 | 2 | 1.6 | 9.7 | 0.00 | 0.00 | 0.00 | 7 | 1018.2 |
| 20260506175403 | 11 | 173 | 0.0 | 0.0 | 0.00 | 0.00 | 0.00 | 12 | 1018.3 |
| 20260506174904 | 10 | 164 | 0.0 | 4.8 | 0.00 | 0.00 | 0.00 | 15 | 1018.4 |
| 20260506174404 | 10 | 152 | 0.0 | 3.2 | 0.00 | 0.00 | 0.00 | 13 | 1018.4 |
| 20260506173404 | 10 | 152 | 1.6 | 4.8 | 0.00 | 0.00 | 0.00 | 17 | 1018.5 |
| 20260506172904 | 9 | 212 | 0.0 | 0.0 | 0.00 | 0.00 | 0.00 | 20 | 1018.6 |
| 20260506171904 | 9 | 229 | 3.2 | 11.3 | 0.00 | 0.00 | 0.00 | 21 | 1018.8 |
| 20260506171404 | 8 | 27 | 0.0 | 3.2 | 0.00 | 0.00 | 0.00 | 22 | 1018.8 |
| 20260506170904 | 8 | 9 | 0.0 | 1.6 | 0.00 | 0.00 | 0.00 | 23 | 1019.0 |
| 20260506170404 | 7 | 5 | 0.0 | 0.0 | 0.00 | 0.00 | 0.00 | 23 | 1018.9 |
| 20260506165919 | 7 | 9 | 0.0 | 0.0 | 0.00 | 0.00 | 0.00 | 22 | 1019.0 |
| 20260506165404 | 7 | 7 | 1.6 | 4.8 | 0.00 | 0.00 | 0.00 | 24 | 1019.0 |
| 20260506164904 | 7 | 333 | 1.6 | 4.8 | 0.00 | 0.00 | 0.00 | 23 | 1019.0 |
| 20260506164404 | 7 | 331 | 0.0 | 4.8 | 0.00 | 0.00 | 0.00 | 23 | 1019.0 |
| 20260506163903 | 7 | 315 | 0.0 | 0.0 | 0.00 | 0.00 | 0.00 | 23 | 1019.1 |
| 20260506163404 | 7 | 315 | 0.0 | 4.8 | 0.00 | 0.00 | 0.00 | 27 | 1019.2 |
| 20260506162904 | 7 | 343 | 0.0 | 3.2 | 0.00 | 0.00 | 0.00 | 28 | 1019.2 |
| 20260506162404 | 7 | 349 | 0.0 | 0.0 | 0.00 | 0.00 | 0.00 | 30 | 1019.2 |
| 20260506160904 | 6 | 219 | 0.0 | 0.0 | 0.00 | 0.00 | 0.00 | 28 | 1019.4 |
| 20260506160404 | 6 | 219 | 0.0 | 3.2 | 0.00 | 0.00 | 0.00 | 29 | 1019.4 |
| 20260506155904 | 6 | 77 | 0.0 | 0.0 | 0.00 | 0.00 | 0.00 | 29 | 1019.4 |
| 20260506155404 | 6 | 76 | 0.0 | 0.0 | 0.00 | 0.00 | 0.00 | 31 | 1019.4 |
| 20260506154904 | 6 | 76 | 0.0 | 0.0 | 0.00 | 0.00 | 0.00 | 32 | 1019.5 |
| 20260506154404 | 5 | 75 | 0.0 | 0.0 | 0.00 | 0.00 | 0.00 | 37 | 1019.5 |
| 20260506153904 | 5 | 69 | 0.0 | 0.0 | 0.00 | 0.00 | 0.00 | 37 | 1019.5 |
| 20260506153404 | 5 | 69 | 0.0 | 0.0 | 0.00 | 0.00 | 0.00 | 38 | 1019.5 |
| 20260506152904 | 5 | 69 | 0.0 | 0.0 | 0.00 | 0.00 | 0.00 | 39 | 1019.5 |
| 20260506152404 | 4 | 69 | 0.0 | 0.0 | 0.00 | 0.00 | 0.00 | 40 | 1019.5 |
| 20260506151903 | 3 | 69 | 0.0 | 0.0 | 0.00 | 0.00 | 0.00 | 39 | 1019.5 |
| 20260506151404 | 3 | 69 | 0.0 | 0.0 | 0.00 | 0.00 | 0.00 | 40 | 1019.5 |
| 20260506150904 | 3 | 69 | 0.0 | 0.0 | 0.00 | 0.00 | 0.00 | 43 | 1019.5 |
| 20260506150404 | 3 | 70 | 0.0 | 0.0 | 0.00 | 0.00 | 0.00 | 43 | 1019.5 |
| 20260506145404 | 2 | 71 | 0.0 | 0.0 | 0.00 | 0.00 | 0.00 | 48 | 1019.4 |
| 20260506144404 | 1 | 72 | 0.0 | 0.0 | 0.00 | 0.00 | 0.00 | 49 | 1019.5 |
| 20260506143904 | 1 | 72 | 0.0 | 0.0 | 0.00 | 0.00 | 0.00 | 49 | 1019.6 |
| 20260506143404 | 0 | 188 | 0.0 | 0.0 | 0.00 | 0.00 | 0.00 | 51 | 1019.7 |
| 20260506142904 | 0 | 224 | 0.0 | 0.0 | 0.00 | 0.00 | 0.00 | 54 | 1019.7 |
| 20260506142404 | 0 | 214 | 0.0 | 0.0 | 0.00 | 0.00 | 0.00 | 55 | 1019.6 |
| 20260506141903 | 0 | 214 | 0.0 | 0.0 | 0.00 | 0.00 | 0.00 | 56 | 1019.7 |
| 20260506141404 | 0 | 214 | 0.0 | 0.0 | 0.00 | 0.00 | 0.00 | 55 | 1019.7 |
| 20260506140904 | 0 | 214 | 0.0 | 0.0 | 0.00 | 0.00 | 0.00 | 56 | 1019.7 |
| 20260506140405 | 0 | 214 | 0.0 | 0.0 | 0.00 | 0.00 | 0.00 | 56 | 1019.6 |
| 20260506135904 | -1 | 214 | 0.0 | 0.0 | 0.00 | 0.00 | 0.00 | 57 | 1019.7 |
| 20260506135404 | -1 | 214 | 0.0 | 0.0 | 0.00 | 0.00 | 0.00 | 58 | 1019.7 |
| 20260506134904 | -1 | 214 | 0.0 | 0.0 | 0.00 | 0.00 | 0.00 | 61 | 1019.7 |
| 20260506134404 | -1 | 214 | 0.0 | 0.0 | 0.00 | 0.00 | 0.00 | 63 | 1019.7 |
| 20260506133404 | -2 | 214 | 0.0 | 0.0 | 0.00 | 0.00 | 0.00 | 67 | 1019.6 |
| 20260506132904 | -3 | 214 | 0.0 | 0.0 | 0.00 | 0.00 | 0.00 | 68 | 1019.5 |
| 20260506132411 | -3 | 214 | 0.0 | 0.0 | 0.00 | 0.00 | 0.00 | 68 | 1019.5 |
| 20260506131904 | -4 | 214 | 0.0 | 0.0 | 0.00 | 0.00 | 0.00 | 68 | 1019.5 |
| 20260506130904 | -5 | 214 | 0.0 | 0.0 | 0.00 | 0.00 | 0.00 | 67 | 1019.3 |
| 20260506125904 | -5 | 214 | 0.0 | 0.0 | 0.00 | 0.00 | 0.00 | 67 | 1019.2 |
| 20260506124904 | -5 | 214 | 0.0 | 0.0 | 0.00 | 0.00 | 0.00 | 66 | 1019.0 |
| 20260506124404 | -5 | 214 | 0.0 | 0.0 | 0.00 | 0.00 | 0.00 | 66 | 1018.9 |
| 20260506123904 | -5 | 214 | 0.0 | 0.0 | 0.00 | 0.00 | 0.00 | 66 | 1018.9 |
| 20260506123404 | -5 | 214 | 0.0 | 0.0 | 0.00 | 0.00 | 0.00 | 66 | 1018.8 |
| 20260506121904 | -5 | 214 | 0.0 | 0.0 | 0.00 | 0.00 | 0.00 | 64 | 1018.7 |
| 20260506121404 | -5 | 214 | 0.0 | 0.0 | 0.00 | 0.00 | 0.00 | 63 | 1018.7 |
| 20260506120904 | -4 | 214 | 0.0 | 0.0 | 0.00 | 0.00 | 0.00 | 63 | 1018.7 |
| 20260506120404 | -4 | 214 | 0.0 | 0.0 | 0.00 | 0.00 | 0.00 | 63 | 1018.7 |
| 20260506114404 | -3 | 214 | 0.0 | 0.0 | 0.00 | 0.00 | 0.00 | 63 | 1018.5 |
| 20260506113904 | -3 | 214 | 0.0 | 0.0 | 0.00 | 0.00 | 0.00 | 63 | 1018.4 |
| 20260506113404 | -3 | 214 | 0.0 | 0.0 | 0.00 | 0.00 | 0.00 | 64 | 1018.4 |
| 20260506112904 | -3 | 214 | 0.0 | 0.0 | 0.00 | 0.00 | 0.00 | 63 | 1018.3 |
| 20260506112405 | -3 | 215 | 0.0 | 0.0 | 0.00 | 0.00 | 0.00 | 63 | 1018.2 |
| 20260506111904 | -3 | 214 | 0.0 | 0.0 | 0.00 | 0.00 | 0.00 | 63 | 1018.2 |
| 20260506111404 | -3 | 214 | 0.0 | 0.0 | 0.00 | 0.00 | 0.00 | 63 | 1018.2 |
| 20260506110904 | -3 | 214 | 0.0 | 0.0 | 0.00 | 0.00 | 0.00 | 61 | 1018.2 |
| 20260506110404 | -3 | 214 | 0.0 | 0.0 | 0.00 | 0.00 | 0.00 | 59 | 1018.1 |
| 20260506105904 | -3 | 214 | 0.0 | 0.0 | 0.00 | 0.00 | 0.00 | 60 | 1018.0 |
| 20260506105404 | -3 | 214 | 0.0 | 0.0 | 0.00 | 0.00 | 0.00 | 60 | 1018.0 |
| 20260506104904 | -3 | 214 | 0.0 | 0.0 | 0.00 | 0.00 | 0.00 | 60 | 1017.9 |
| 20260506104405 | -3 | 214 | 0.0 | 0.0 | 0.00 | 0.00 | 0.00 | 60 | 1017.9 |
| 20260506103904 | -3 | 214 | 0.0 | 0.0 | 0.00 | 0.00 | 0.00 | 60 | 1017.8 |
| 20260506103404 | -3 | 214 | 0.0 | 0.0 | 0.00 | 0.00 | 0.00 | 60 | 1017.8 |
| 20260506102404 | -2 | 214 | 0.0 | 0.0 | 0.00 | 0.00 | 0.00 | 60 | 1017.8 |
| 20260506101904 | -2 | 214 | 0.0 | 0.0 | 0.00 | 0.00 | 0.00 | 60 | 1017.7 |
| 20260506101404 | -2 | 214 | 0.0 | 0.0 | 0.00 | 0.00 | 0.00 | 60 | 1017.6 |
| 20260506100904 | -2 | 214 | 0.0 | 0.0 | 0.00 | 0.00 | 0.00 | 59 | 1017.6 |
| 20260506100404 | -2 | 215 | 0.0 | 0.0 | 0.00 | 0.00 | 0.00 | 58 | 1017.5 |
| 20260506095904 | -2 | 215 | 0.0 | 0.0 | 0.00 | 0.00 | 0.00 | 58 | 1017.5 |
| 20260506095404 | -2 | 215 | 0.0 | 0.0 | 0.00 | 0.00 | 0.00 | 58 | 1017.5 |
| 20260506094905 | -2 | 215 | 0.0 | 0.0 | 0.00 | 0.00 | 0.00 | 58 | 1017.4 |
| 20260506094404 | -2 | 215 | 0.0 | 0.0 | 0.00 | 0.00 | 0.00 | 58 | 1017.4 |
| 20260506093904 | -2 | 215 | 0.0 | 0.0 | 0.00 | 0.00 | 0.00 | 58 | 1017.4 |
| 20260506093404 | -2 | 215 | 0.0 | 0.0 | 0.00 | 0.00 | 0.00 | 57 | 1017.4 |
| 20260506092404 | -2 | 215 | 0.0 | 0.0 | 0.00 | 0.00 | 0.00 | 54 | 1017.3 |
| 20260506091904 | -2 | 215 | 0.0 | 0.0 | 0.00 | 0.00 | 0.00 | 54 | 1017.2 |
| 20260506090904 | -1 | 215 | 0.0 | 0.0 | 0.00 | 0.00 | 0.00 | 55 | 1017.2 |
| 20260506085907 | -1 | 215 | 0.0 | 0.0 | 0.00 | 0.00 | 0.00 | 52 | 1017.3 |
| 20260506084905 | -1 | 215 | 0.0 | 0.0 | 0.00 | 0.00 | 0.00 | 51 | 1017.1 |
| 20260506084404 | -1 | 215 | 0.0 | 0.0 | 0.00 | 0.00 | 0.00 | 51 | 1017.1 |
| 20260506083904 | -1 | 215 | 0.0 | 0.0 | 0.00 | 0.00 | 0.00 | 50 | 1017.1 |
| 20260506083404 | -1 | 215 | 0.0 | 0.0 | 0.00 | 0.00 | 0.00 | 50 | 1017.0 |
| 20260506082404 | -1 | 215 | 0.0 | 0.0 | 0.00 | 0.00 | 0.00 | 48 | 1016.9 |
| 20260506081904 | 0 | 215 | 0.0 | 0.0 | 0.00 | 0.00 | 0.00 | 47 | 1016.9 |
| 20260506081404 | 0 | 215 | 0.0 | 0.0 | 0.00 | 0.00 | 0.00 | 48 | 1016.9 |
| 20260506080904 | 0 | 215 | 0.0 | 0.0 | 0.00 | 0.00 | 0.00 | 47 | 1016.8 |
| 20260506080405 | 0 | 215 | 0.0 | 0.0 | 0.00 | 0.00 | 0.00 | 46 | 1016.8 |
| 20260506072905 | 1 | 215 | 0.0 | 0.0 | 0.00 | 0.00 | 0.00 | 41 | 1016.5 |
| 20260506072404 | 1 | 215 | 0.0 | 0.0 | 0.00 | 0.00 | 0.00 | 41 | 1016.5 |
| 20260506071904 | 1 | 215 | 0.0 | 0.0 | 0.00 | 0.00 | 0.00 | 41 | 1016.5 |
| 20260506071404 | 1 | 215 | 0.0 | 11.3 | 0.00 | 0.00 | 0.00 | 39 | 1016.4 |
| 20260506070904 | 1 | 219 | 0.0 | 4.8 | 0.00 | 0.00 | 0.00 | 38 | 1016.3 |
| 20260506070404 | 2 | 257 | 0.0 | 0.0 | 0.00 | 0.00 | 0.00 | 38 | 1016.3 |
| 20260506062404 | 3 | 257 | 0.0 | 0.0 | 0.00 | 0.00 | 0.00 | 31 | 1016.2 |
| 20260506061404 | 3 | 257 | 0.0 | 0.0 | 0.00 | 0.00 | 0.00 | 31 | 1015.9 |
| 20260506060904 | 3 | 257 | 0.0 | 0.0 | 0.00 | 0.00 | 0.00 | 31 | 1015.9 |
| 20260506060404 | 3 | 257 | 0.0 | 0.0 | 0.00 | 0.00 | 0.00 | 31 | 1015.8 |
| 20260506051403 | 4 | 248 | 0.0 | 0.0 | 0.00 | 0.00 | 0.00 | 27 | 1015.6 |
| 20260506050905 | 4 | 252 | 0.0 | 0.0 | 0.00 | 0.00 | 0.00 | 27 | 1015.6 |
| 20260506050404 | 4 | 248 | 0.0 | 0.0 | 0.00 | 0.00 | 0.00 | 26 | 1015.4 |
| 20260506044904 | 4 | 238 | 1.6 | 8.0 | 0.00 | 0.00 | 0.00 | 30 | 1015.1 |
| 20260506044404 | 4 | 233 | 0.0 | 0.0 | 0.00 | 0.00 | 0.00 | 31 | 1015.5 |
| 20260506043904 | 4 | 232 | 0.0 | 0.0 | 0.00 | 0.00 | 0.00 | 33 | 1015.3 |
| 20260506043404 | 3 | 232 | 0.0 | 0.0 | 0.00 | 0.00 | 0.00 | 33 | 1015.5 |
| 20260506042404 | 3 | 231 | 0.0 | 0.0 | 0.00 | 0.00 | 0.00 | 37 | 1015.4 |
| 20260506041904 | 3 | 355 | 0.0 | 0.0 | 0.00 | 0.00 | 0.00 | 36 | 1015.3 |
| 20260506041404 | 3 | 34 | 0.0 | 0.0 | 0.00 | 0.00 | 0.00 | 38 | 1015.4 |
| 20260506035404 | 3 | 34 | 0.0 | 0.0 | 0.00 | 0.00 | 0.00 | 43 | 1015.4 |
| 20260506034904 | 3 | 34 | 0.0 | 0.0 | 0.00 | 0.00 | 0.00 | 44 | 1015.3 |
| 20260506034404 | 3 | 34 | 0.0 | 0.0 | 0.00 | 0.00 | 0.00 | 43 | 1015.5 |
| 20260506033904 | 3 | 34 | 0.0 | 0.0 | 0.00 | 0.00 | 0.00 | 43 | 1015.3 |
| 20260506033404 | 3 | 32 | 0.0 | 0.0 | 0.00 | 0.00 | 0.00 | 43 | 1015.5 |
| 20260506032904 | 3 | 32 | 0.0 | 0.0 | 0.00 | 0.00 | 0.00 | 45 | 1015.6 |
| 20260506032404 | 3 | 32 | 4.8 | 14.5 | 0.00 | 0.00 | 0.00 | 45 | 1015.3 |
| 20260506031904 | 3 | 13 | 8.0 | 19.3 | 0.00 | 0.00 | 0.00 | 44 | 1015.1 |
| 20260506031404 | 4 | 38 | 9.7 | 19.3 | 0.00 | 0.00 | 0.00 | 44 | 1015.2 |